Location: Marcé
(47.5801°N, 0.3280°W)
Time: 15:25:53
(UTC+01:00)

SR - Pass Details

Date: 08 December 2021
Orbit: 582 x 872 km, 66.7° (Epoch: 22 January)

Event Time Altitude Azimuth Distance (km) Brightness Sun altitude
Rises 05:53:38 0° 333° (NNW) 2,815 - -26.4°
Reaches altitude 10° 05:56:59 10° 2° (N) 1,922 - -25.9°
Exits shadow 05:57:43 12° 11° (N) 1,809 ? -25.7°
Maximum altitude 05:59:06 13° 31° (NNE) 1,726 ? -25.5°
Drops below altitude 10° 06:01:14 10° 61° (ENE) 1,954 ? -25.2°
Sets 06:04:41 0° 89° (E) 2,900 ? -24.6°
